User: anonymous   Login
Location: Gwatt
(46.7204°N, 7.6223°E)
Time: 01:52:48
(UTC+00:00)
Language:

Cosmos 1833 Rocket - Orbit

View from above orbital plane
View from above orbital plane
View from above satellite
View from above satellite

Ground track
Ground track

The orbit data is extracted from the following two-line orbital elements,

1 17590U 87027B   20328.47547309 +.00000040 +00000-0 +43972-4 0  9993
2 17590 071.0047 026.5168 0005918 213.0273 147.0482 14.16793264741687
Epoch (UTC): 23 November 2020 11:24:40
Eccentricity: 0.0005918
inclination: 71.0047°
perigee height: 832 km
apogee height: 840 km
right ascension of ascending node: 26.5168°
argument of perigee: 213.0273°
revolutions per day: 14.16793264
mean anomaly at epoch: 147.0482°
orbit number at epoch: 74168

The dashed part of the orbit path shows where the satellite is in the earth's shadow,  

DLR